Regional Weather Roundup
Issued by NWS Sterling, VA

Home | Current Version | Previous Version | Graphics & Text | Print | Product List | Glossary On
Versions: 1 2 3 4 5 6 7 8 9 10 11 12 13 14 15 16 17 18 19 20 21 22 23 24 25 26 27 28 29 30 31 32 33 34 35 36 37 38 39 40 41 42 43 44 45 46 47 48 49 50
000
ASUS41 KLWX 241510
RWRLWX

REGIONAL WEATHER ROUNDUP
NATIONAL WEATHER SERVICE BALTIMORE MD/WASHINGTON DC
1100 AM EDT THU JUL 24 2014

Note: "FAIR" indicates few or no clouds below 12,000 feet
with no significant weather and/or obstructions to visibility.
 TC=TEMPERATURE CELSIUS

 * =Non NWS site. Station does not report precipitation (e.g. rain,
    snow, etc.), thunder, or fog.

DCZ001-MDZ009-015-VAZ040>042-051-053>054-241600-
WASHINGTON METRO
  /KDAA//-FT BELVOIR

CITY           SKY/WX    TMP DP  RH WIND       PRES   REMARKS
WASHINGTON NAT CLOUDY    77  63  61 N12       29.93S
DULLES         CLOUDY    71  60  68 N7        29.94S
ANDREWS AFB    CLOUDY    73  66  78 N9        29.92S
QUANTICO       CLOUDY    75  68  78 N10       29.93R
COLLEGE PARK*  CLOUDY    73  64  73 N6        29.93R
LEESBURG*      CLOUDY    72  64  78 N8        29.95S
GAITHERSBURG*  CLOUDY    70  64  83 CALM      29.98S

$$

MDZ006>007-011-014-241600-
BALTIMORE METRO

CITY           SKY/WX    TMP DP  RH WIND       PRES   REMARKS
BWI AIRPORT    CLOUDY    73  63  70 VRB6      29.92R
MD SCIENCE CTR   N/A     73  62  68 MISG      29.92S
MARTIN STATE   CLOUDY    73  66  78 NW6       29.93R
ANNAPOLIS      CLOUDY    74  65  73 NW8       29.92R
FORT MEADE*    CLOUDY    72  63  73 N7        29.95S

$$

MDZ012-015-019>023-241600-
MARYLAND EASTERN SHORE

CITY           SKY/WX    TMP DP  RH WIND       PRES   REMARKS
OCEAN CITY     LGT RAIN  74  70  87 CALM      29.90R FOG
SALISBURY      NOT AVBL
BAY BRIDGE AP*   N/A     73  66  78 N6        29.91S
CAMBRIDGE*     CLOUDY    73  66  78 N6        29.90R
EASTON*        CLOUDY    73  72  94 N6        29.94R

$$

MDZ017>025-241600-
SOUTHERN MARYLAND

CITY           SKY/WX    TMP DP  RH WIND       PRES   REMARKS
PATUXENT RIVER LGT RAIN  73  67  81 E5        29.90R
ST INIGOES     LGT RAIN  72  66  81 NE5       29.90S
LEONARDTOWN*   CLOUDY    72  68  88 CALM      29.92S

$$

MDZ003>005-241600-
NORTH CENTRAL MARYLAND

CITY           SKY/WX    TMP DP  RH WIND       PRES   REMARKS
FREDERICK*     CLOUDY    73  64  73 NE6       29.97S
HAGERSTOWN APT PTSUNNY   75  59  57 N8        29.96R
WESTMINSTER*   PTSUNNY   72  64  78 N5        29.95S

$$

MDZ501>502-241600-
WESTERN MARYLAND

CITY           SKY/WX    TMP DP  RH WIND       PRES   REMARKS
OAKLAND*       CLOUDY    63  61  94 N7        30.04S
CUMBERLAND*    PTSUNNY   75  59  57 NE5       30.01S

$$

VAZ025>031-241600-
SHENANDOAH VALLEY

CITY           SKY/WX    TMP DP  RH WIND       PRES   REMARKS
WINCHESTER*    CLOUDY    70  63  78 N5        29.96S
STAUNTON*      CLOUDY    72  66  82 E10       29.98S

$$

WVZ021-048>050-054>055-241600-
EASTERN WEST VIRGINIA PANHANDLE

CITY           SKY/WX    TMP DP  RH WIND       PRES   REMARKS
MARTINSBURG    CLOUDY    74  60  61 NE7       29.96S
PETERSBURG*    CLOUDY    66  60  79 CALM      29.99R HAZE

$$

VAZ036>039-050-241600-
CENTRAL FOOTHILLS

CITY           SKY/WX    TMP DP  RH WIND       PRES   REMARKS
CHARLOTTESVILL CLOUDY    75  69  81 E5        29.93S
ORANGE*        CLOUDY    72  64  78 N6        29.96R

$$

VAZ055>057-241600-
NORTH AND CENTRAL PIEDMONT

CITY           SKY/WX    TMP DP  RH WIND       PRES   REMARKS
FREDERICKSBRG* CLOUDY    77  72  85 N7        29.91S
STAFFORD*      LGT RAIN  74  74 100 NW8       29.96S

$$

NCZ024-NYZ072-PAZ021-071-VAZ022-071-241600-
OTHER REGIONAL OBSERVATIONS

CITY           SKY/WX    TMP DP  RH WIND       PRES   REMARKS
NEW YORK CITY  CLOUDY    74  63  68 VRB3      29.90R
PHILADELPHIA   CLOUDY    75  58  55 N13       29.90R
PITTSBURGH     PTSUNNY   69  55  60 N14       30.02S
ROANOKE        PTSUNNY   79  66  65 SE5       29.96F
RICHMOND       CLOUDY    78  72  81 CALM      29.91R
RALEIGH        PTSUNNY   79  70  74 NE5       29.93S

$$

ANZ530>537-241600-
MARINE OBSERVATIONS

STATION/POSITION TIME  TEMP    WIND        PRES
                       AIR SEA DIR/SP/G
                 (UTC) (F)     (DEG/KT/KT) (MB)
THOMAS PT LIGHT  1500   73 79  360/ 13/ 15 1013.3R
BALT KEY BRIDGE  1500   73     350/  7/  8 1012.9R
COVE POINT       1500   74      60/  7/  9 1012.6R
LEWISETTA        1500   74 81   30/  6/ 11 1012.2F
SOLOMONS ISLAND  1500      81                N/A
PINEY POINT      1500           70/  5/  7   N/A

$$




USA.gov is the U.S. government's official web portal to all federal, state and local government web resources and services.